Location: Bannatyne
(13.0833°N, 59.5333°W)
Time: 08:09:42
(UTC+00:00)

Vanguard 2 Rocket - Pass Details

Date: 29 January 2020
Orbit: 554 x 3326 km, 32.9° (Epoch: 06 April)

Event Time Altitude Azimuth Distance (km) Brightness Sun altitude
Rises 12:15:32 0° 315° (NW) 3,433 9.3 24.1°
Reaches altitude 10° 12:17:47 10° 323° (NW) 2,733 8.9 24.6°
Maximum altitude 12:24:04 40° 32° (NNE) 1,941 8.9 26.0°
Drops below altitude 10° 12:34:42 10° 98° (E) 4,612 11.8 28.2°
Sets 12:39:44 0° 104° (ESE) 6,095 12.2 29.3°
